Weather in Myyuta

Russia / Altai Republic     51°25′04″N   85°37′11″E
temp.,
°C
wind,
m/s
gust,
m/s
humid.,
%
clouds,
%
prec.,
mm/h
press.,
hPa
HPBL,
m
23 april, fri
fri2301:00−6nw1290100 0.2 1038195
04:00−6nw2390100 0.4 1038216
07:00−5nnw2486100 0.7 1038512
10:00−3n3667100 0.1 10381069
13:00−2n3667100 0.6 10371307
16:00−1n4563100 0.4 10371391
19:00−2n2483100 0.8 1037580
22:00−4nnw2396100 0.9 1037273
24 april, sat
sat2401:00−4nw1395100 1.7 1036191
04:00−4nw1295100 0.4 1035136
07:00−4wnw1292100 0.9 1034197
10:00−1nw2373100 0.4 1033917
13:000nnw2371100 1.0 10321164
16:00+1nnw2467100 0.8 10321274
19:000nw246661 1.1 10321062
22:00−5wsw1195100 0.1 103513
25 april, sun
sun2501:00−4ssw129388 0.3 103465
04:00−4sw119473 0.2 103421
07:00−4s019179 0.2 103477
10:00+1e116596 0.1 1033946
13:00+3n2154100 0.3 10311384
16:00+4nne2257100 0.2 10291288
19:00+2nne227392 0.3 1030725
22:00−4ssw10965 0.0 103310
26 april, mon
mon2601:00−4ssw21965 0.0 103217
04:00−4s21955 0.0 103221
07:00−3s128523 0.0 103154
10:00+4sse125745 0.0 1028707
13:00+8w124396 0.0 10261687
16:00+8nw124370 0.0 10251727
19:00+6n11655 0.0 102521
22:00+1s228156 0.0 102814
27 april, tue
tue2701:00+1ssw367799 0.0 102895
04:00+1ssw3578100 0.0 102884
07:00+2ssw3575100 0.0 1028114
10:00+4ssw4775100 0.0 1028425
13:00+10wsw1455100 0.3 10251170
16:00+11wnw3553100 0.0 10241472
19:00+9n1168100 0.0 102310
22:00+5ssw2383100 0.0 102537